Regional Weather Roundup
Issued by NWS Sioux Falls, SD

Home | Current Version | Previous Version | Text Only | Print | Product List | Glossary On
Versions: 1 2 3 4 5 6 7 8 9 10 11 12 13 14 15 16 17 18 19 20 21 22 23 24 25 26 27 28 29 30 31 32 33 34 35 36 37 38 39 40 41 42 43 44 45 46 47 48 49 50
283
ASUS43 KFSD 100710
RWRFSD

WEATHER ROUNDUP FOR SE SOUTH DAKOTA/SW MINNESOTA/NW IOWA
NATIONAL WEATHER SERVICE SIOUX FALLS SD
100 AM CST WED FEB 10 2016

NOTE: "FAIR" INDICATES FEW OR NO CLOUDS BELOW 12,000 FEET WITH NO
SIGNIFICANT WEATHER AND OR OBSTRUCTIONS TO VISIBILITY.


SDZ038>040-050-052>070-100800-
SOUTHEAST SOUTH DAKOTA

CITY           SKY/WX    TMP DP  RH WIND       PRES   REMARKS
BROOKINGS      MOCLDY    16  10  77 E7        30.09S WCI   6
CHAMBERLAIN    CLOUDY    29  24  81 CALM      30.02F
HURON          CLOUDY    26  19  74 SE6       30.06F WCI  19
MADISON        CLOUDY    18  18 100 SE5       30.08F WCI  11
MITCHELL       CLOUDY    27  20  75 SE8       30.07F WCI  19
SIOUX FALLS    CLOUDY    20  12  71 S5        30.11F WCI  13
WINNER         CLOUDY    35  26  69 S5        30.01F
YANKTON        CLOUDY    21  16  79 E5        30.08F WCI  15
$$

MNZ071-072-080-081-089-090-097-098-100800-
SOUTHWEST MINNESOTA

CITY           SKY/WX    TMP DP  RH WIND       PRES   REMARKS
FAIRMONT       CLOUDY    10   1  67 NW10      30.12S WCI  -3
JACKSON        CLOUDY    16   9  73 VRB6      30.11F WCI   7
LUVERNE        CLOUDY    21  14  73 CALM      30.12S
MARSHALL       CLOUDY    14   8  77 N9        30.15S WCI   2
MONTEVIDEO     CLOUDY    12   3  67 NE8       30.18F WCI   1
PIPESTONE      CLOUDY    18   9  68 E5        30.09S WCI  11
REDWOOD FALLS  CLOUDY    12   3  67 N8        30.16S WCI   0
TRACY          CLOUDY    15  10  81 N7        30.14R WCI   5
WINDOM         CLOUDY    14   9  79 N7        30.11F WCI   4
WORTHINGTON    CLOUDY    16   9  73 N8        30.11S WCI   5
$$

IAZ001>003-012>014-020>022-031-032-NEZ013-014-SDZ071-100800-
NORTHWEST IOWA

CITY           SKY/WX    TMP DP  RH WIND       PRES   REMARKS
CHEROKEE       CLOUDY    17  13  84 W3        30.14F
DENISON        CLOUDY    19  12  73 SW5       30.13F WCI  13
ESTHERVILLE    CLOUDY    14   7  73 N13       30.11F WCI   0
LE MARS        CLOUDY    18  16  93 CALM      30.14F
ORANGE CITY    CLOUDY    18  12  79 CALM      30.11F
SHELDON        CLOUDY    16  12  86 CALM      30.10F
SIOUX CITY     CLOUDY    16  11  80 SE7       30.14F WCI   6
SPENCER        CLOUDY    17  11  77 NW3       30.12F
STORM LAKE     CLOUDY    18  14  86 W7        30.11F WCI   8
$$

ABBREVIATIONS USED IN REMARKS
   TC - TEMPERATURE IN CELSIUS
  WCI - WIND CHILL INDEX
   HX - HEAT INDEX
  VSB - VISIBILITY





USA.gov is the U.S. government's official web portal to all federal, state and local government web resources and services.